Flag for Germany Weather past 2 weeks in Heide, Schleswig-Holstein, Germany

Now
70 °F

Mild.


Feels Like: 70 °F
Forecast: 54 / 68 °F
Wind: 8 mph from Southwest

Location: Hohn

Current Time: Aug 29, 2015 at 4:59:31 PM

Latest Report: Aug 29, 2015 at 4:20 PM


Visibility: 4 mi

Pressure: 30.18 "Hg

Humidity: 50%

Dew point: 50 °F

Location of HeideLocation

Historic Weather in Heide — Graph

°F

Heide temperature yesterday

Maximum temperature yesterday: 68 °F (at 3:20 PM)
Minimum temperature yesterday: 55 °F (at 5:20 AM)
Average temperature yesterday: 61 °F

Past Weeks' High & Low Weather Summary

 TemperatureHumidityPressure
High81 °F (Aug 14, 3:20 PM)100% (Aug 15, 6:20 AM)30.30 "Hg (Aug 15, 6:20 AM)
Low52 °F (Aug 21, 1:20 AM)34% (Aug 22, 3:20 PM)29.59 "Hg (Aug 24, 7:20 PM)
Average64 °F82%29.95 "Hg
* Reported Aug 14 3:20 PM — Aug 29 3:20 PM, Heide, Weather by CustomWeather, © 2015

Note: Actual official high and low records may vary slightly from our data, if they occured in-between our weather recording intervals... More about our weather records

Advertising

Heide weather history for previous 24 hours

 ConditionsComfort  
Time TempWeatherWind HumidityBarometerVisibility
3:20 PM
Sat, Aug 29
68 °FMild.7 mph56%30.18 "Hg4 mi
2:20 PM68 °FMild.7 mph56%30.21 "Hg4 mi
1:20 PM66 °FMild.8 mph60%30.21 "Hg4 mi
11:20 AM64 °FMild.8 mph68%30.21 "Hg3 mi
10:20 AM63 °FMild.8 mph77%30.21 "Hg3 mi
9:20 AM59 °FCool.6 mph82%30.21 "Hg3 mi
7:20 AM54 °FCool.5 mph94%30.18 "Hg2 mi
6:20 AM54 °FCool.6 mph94%30.18 "Hg2 mi
5:20 AM52 °FCool.6 mph94%30.15 "Hg2 mi
4:20 AM54 °FCool.6 mph94%30.15 "Hg2 mi
3:20 AM55 °FCool.6 mph88%30.15 "Hg2 mi
2:20 AM54 °FCool.7 mph94%30.12 "Hg3 mi
1:20 AM54 °FCool.6 mph94%30.12 "Hg2 mi
12:20 AM54 °FCool.5 mph94%30.12 "Hg2 mi
11:20 PM
Fri, Aug 28
55 °FCool.5 mph94%30.12 "Hg3 mi
10:20 PM57 °FCool.5 mph88%30.09 "Hg3 mi
9:20 PM57 °FCool.3 mph82%30.07 "Hg3 mi
8:20 PM61 °FCool.5 mph77%30.07 "Hg3 mi
7:20 PM64 °FMild.6 mph73%30.04 "Hg3 mi
6:20 PM64 °FMild.9 mph68%30.04 "Hg3 mi
5:20 PM66 °FMild.13 mph60%30.04 "Hg4 mi
4:20 PM64 °FPassing clouds.13 mph73%30.01 "HgN/A
Weather by CustomWeather, © 2015

See weather overviewHow to use our weather pages